Location: Bruch
(44.2051°N, 0.4120°E)
Time: 18:18:09
(UTC+00:00)

Lacrosse 5 - Pass Details

Date: 29 November 2020
Orbit: 713 x 726 km, 57.0° (Epoch: 18 January)

Event Time Altitude Azimuth Distance (km) Brightness Sun altitude
Exits shadow 04:32:07 69° 90° (E) 761 2.0 -28.0°
Drops below altitude 10° 04:36:43 10° 51° (NE) 2,195 4.9 -27.2°
Sets 04:39:06 0° 50° (NE) 3,119 5.8 -26.7°
